Location: ??????
(42.0089°N, 44.3281°E)
Time: 00:32:05
(UTC+00:00)

Cosmos 2251 Rocket - Pass Details

Date: 05 June 2022
Orbit: 764 x 791 km, 74.0° (Epoch: 03 July)

Event Time Altitude Azimuth Distance (km) Brightness Sun altitude
Rises 21:28:07 0° 343° (NNW) 3,256 7.8 -25.1°
Reaches altitude 10° 21:30:32 10° 347° (NNW) 2,329 6.9 -25.0°
Maximum altitude 21:35:46 60° 68° (ENE) 888 3.9 -24.9°
Enters shadow 21:37:04 46° 120° (ESE) 1,036 3.9 -24.8°
